Location: Unspecified
(33.6682°S, 0.0000°E)
Time: 11:13:57
(UTC+00:00)

Vanguard 2 Rocket - Pass Details

Date: 25 June 2019
Orbit: 554 x 3327 km, 32.9° (Epoch: 15 October)

Event Time Altitude Azimuth Distance (km) Brightness Sun altitude
Rises 05:54:16 0° 321° (NW) 7,290 11.3 -14.3°
Reaches altitude 10° 05:59:41 10° 327° (NNW) 6,267 11.0 -13.3°
Maximum altitude 06:17:25 43° 29° (NNE) 3,578 10.3 -9.8°
Drops below altitude 10° 06:29:59 10° 95° (E) 4,550 11.6 -7.4°
Sets 06:33:09 0° 101° (E) 5,216 11.8 -6.8°
